This demonstration page uses our WeatherBlox Daily Observations layout. Learn more.

Left ArrowRight Arrow

34.02893, -84.19858

Hourly Observations for August 25, 2022

Temp ( °F °C ) Dew Point ( °F °C ) Humidity (%) Winds ( mph kmh ) Pressure ( in mb ) Visibility ( mi km ) Precip ( " mm )
12:53 am 00:53 Mostly Cloudy 73 22.8 71 21.7 94 94 Calm 30.03 1017 10 16 0.00 0.00
1:53 am 01:53 Mostly Cloudy with Light Rain 73 22.8 71 21.7 94 94 WSW 3 6 30.03 1017 10 16 0.01 0.13
2:53 am 02:53 Mostly Cloudy with Light Rain 72 22.2 71 21.7 97 97 Calm 30.02 1017 7 11 0.02 0.51
3:23 am 03:23 Cloudy with Light Rain 72 22.2 71 21.7 97 97 Calm 30.05 1017 7 11 0.02 0.51
3:41 am 03:41 Mostly Cloudy with Light Rain 72 22.2 71 21.7 97 97 S 3 6 30.04 1017 6 10 0.03 0.76
3:53 am 03:53 Mostly Cloudy with Light Rain 71 21.7 70 21.1 96 96 S 3 6 30.03 1017 8 13 0.03 0.76
4:53 am 04:53 Mostly Cloudy with Light Rain 71 21.7 70 21.1 96 96 Calm 30.03 1017 6 10 0.04 1.02
5:03 am 05:03 Mostly Cloudy with Light Rain 71 21.7 70 21.1 96 96 Calm 30.04 1017 5 8 0.01 0.25
5:53 am 05:53 Mostly Cloudy with Light Rain 71 21.7 70 21.1 96 96 Calm 30.03 1017 6 10 0.07 1.78
6:55 am 06:55 Mostly Cloudy with Light Rain 70 21.1 70 21.1 100 100 SSE 3 6 30.05 1018 6 10 0.01 0.13
7:53 am 07:53 Mostly Cloudy 70 21.1 69 20.6 97 97 VRB 3 6 30.06 1018 10 16 0.03 0.76
8:53 am 08:53 Cloudy 71 21.7 70 21.1 96 96 SSE 3 6 30.07 1018 10 16 0.00 0.00
9:53 am 09:53 Cloudy 72 22.2 70 21.1 93 93 SSE 5 7 30.08 1019 10 16 0.00 0.00
10:53 am 10:53 Cloudy 74 23.3 70 21.1 87 87 Calm 30.09 1019 10 16 0.00 0.00
10:54 am 10:54 Cloudy 74 23.3 70 21.1 87 87 S 3 6 30.09 1019 10 16 0.00 0.00
11:53 am 11:53 Cloudy 76 24.4 70 21.1 82 82 Calm 30.08 1019 10 16 0.00 0.00
12:53 pm 12:53 Cloudy 79 26.1 70 21.1 74 74 Calm 30.07 1018 10 16 0.00 0.00
1:53 pm 13:53 Mostly Cloudy 81 27.2 70 21.1 69 69 Calm 30.05 1018 10 16 0.00 0.00
2:04 pm 14:04 Partly Cloudy 81 27.2 70 21.1 69 69 Calm 30.05 1018 10 16 0.00 0.00
2:53 pm 14:53 Mostly Cloudy 84 28.9 71 21.7 65 65 SE 6 9 30.03 1017 10 16 0.00 0.00
3:00 pm 15:00 Mostly Sunny 83 28.3 71 21.7 67 67 undefined N/A 30.02 1017 10 16 0.00 0.00
3:53 pm 15:53 Cloudy 80 26.7 71 21.7 74 74 SSE 8 13 30.02 1017 10 16 0.00 0.00
4:50 pm 16:50 Cloudy 79 26 70 21 74 74 SSW 9 15 30.01 1016 10 16 0.00 0.00
4:53 pm 16:53 Cloudy 79 26.1 70 21.1 74 74 SSW 10 17 30.01 1016 10 16 0.00 0.00
5:53 pm 17:53 Sunny 78 25.6 70 21.1 76 76 S 6 9 30.02 1017 10 16 0.00 0.00
6:53 pm 18:53 Mostly Sunny 77 25 70 21.1 79 79 S 7 11 30.01 1016 10 16 0.00 0.00
7:53 pm 19:53 Mostly Sunny 76 24.4 70 21.1 82 82 Calm 30.01 1016 10 16 0.00 0.00
8:53 pm 20:53 Clear 73 22.8 70 21.1 90 90 Calm 30.04 1017 10 16 0.00 0.00
9:53 pm 21:53 Clear 72 22.2 70 21.1 93 93 S 3 6 30.05 1018 10 16 0.00 0.00
10:53 pm 22:53 Clear 71 21.7 70 21.1 96 96 Calm 30.06 1018 10 16 0.00 0.00
11:53 pm 23:53 Clear 71 21.7 69 20.6 93 93 Calm 30.07 1018 10 16 0.00 0.00

Powered by AerisWeather